Regional Weather Roundup
Issued by NWS

Home | Current Version | Previous Version | Graphics & Text | Print | Product List | Glossary On
Versions: 1 2 3 4 5 6 7 8 9 10 11 12 13 14 15 16 17 18 19 20 21 22 23 24 25 26 27 28 29 30 31 32 33 34 35 36 37 38 39 40 41 42 43 44 45 46 47 48 49 50
000
ASUS45 KPSR 221110
RWRAZ

ARIZONA REGIONAL HOURLY WEATHER ROUNDUP
NATIONAL WEATHER SERVICE PHOENIX AZ
400 AM MST MON SEP 22 2014

NOTE: FAIR INDICATES FEW OR NO CLOUDS BELOW 12,000 FEET WITH NO
SIGNIFICANT WEATHER AND/OR OBSTRUCTIONS TO VISIBILITY.

AZZ001>003-036-221200-
NORTHWEST ARIZONA

CITY           SKY/WX    TMP DP  RH WIND       PRES   REMARKS
BULLHEAD CITY  CLEAR     77  45  31 CALM      29.90S
KINGMAN        CLEAR     60  42  51 MISG      30.08S
$$

AZZ004>008-015-016-018-221200-
NORTH CENTRAL ARIZONA

CITY           SKY/WX    TMP DP  RH WIND       PRES   REMARKS
GRAND CANYON   CLEAR     41  39  93 NE5       30.30S
PRESCOTT       MOCLDY    55  43  63 S7        30.20R
FLAGSTAFF      CLEAR     47  44  90 CALM      30.32S
PAYSON         CLEAR     64  55  72 CALM      30.21S
PAGE           CLEAR     66  57  72 CALM      30.14R
$$

AZZ009>014-017-221200-
NORTHEAST ARIZONA

CITY           SKY/WX    TMP DP  RH WIND       PRES   REMARKS
WINSLOW        CLEAR     63  60  90 S5        30.20R
SAINT JOHNS    PTCLDY    63  58  83 CALM      30.23S
WINDOW ROCK    CLOUDY    59  56  89 E7        30.32
SHOW LOW       PTCLDY    57  55  94 S6        30.31R
$$

AZZ023-221200-
GREATER PHOENIX AREA

CITY           SKY/WX    TMP DP  RH WIND       PRES   REMARKS
PHOENIX        CLEAR     81  54  39 SW5       29.91R
BUCKEYE          N/A     75  57  53 NE3       29.92S
LUKE AFB       MOCLDY    78  58  51 N5        29.92R
DEER VALLEY    CLEAR     76  55  48 CALM      29.94R
SCOTTSDALE     CLEAR     79  57  46 CALM      29.95S
MESA-GATEWAY   CLEAR    N/A N/A N/A E3        29.96S
$$

AZZ027-028-221200-
SOUTHWEST MARICOPA COUNTY AND PINAL COUNTY

CITY           SKY/WX    TMP DP  RH WIND       PRES   REMARKS
CASA GRANDE    CLEAR     79  54  41 CALM      29.94S
$$

AZZ503-504-507>509-221200-
SOUTHEAST ARIZONA

CITY           SKY/WX    TMP DP  RH WIND       PRES   REMARKS
TUCSON         PTCLDY    76  63  64 E10       30.05R
DAVIS-MONTHAN  CLEAR     75  63  65 SE9       30.03S
NOGALES        CLEAR     64  60  87 NW3       30.12S
SIERRA VISTA   PTCLDY    63  61  94 SW3       30.17S
DOUGLAS        MOCLDY    65  64  97 N6        30.14S
SAFFORD        CLOUDY    71  64  78 E16       30.10S
$$

AZZ020-021-025-026-031-221200-
SOUTHWEST ARIZONA

CITY           SKY/WX    TMP DP  RH WIND       PRES   REMARKS
YUMA           CLEAR     80  56  43 NE3       29.85S
$$

CAZ031-033-041-043-047-048-061-221200-
SOUTHERN CALIFORNIA

CITY           SKY/WX    TMP DP  RH WIND       PRES   REMARKS
DOWNTOWN L.A.  CLEAR     65  61  87 CALM      29.95F
L.A. AIRPORT   CLOUDY   N/A N/A N/A NE5       29.96S
SAN DIEGO      PTCLDY    68  62  81 NE3       29.95F
BURBANK        CLEAR     62  55  77 NW3       29.96F
ONTARIO        CLEAR     64  58  80 CALM      29.96F
RIVERSIDE      CLEAR     63  58  83 CALM      29.97S
PALM SPRINGS   CLEAR     79  52  38 NW9       29.89S
EL CENTRO NAS  CLEAR     73  51  46 VRB3      29.83S
IMPERIAL       CLEAR     75  54  47 CALM      29.83S
BLYTHE         CLEAR     74  49  41 E3        29.87R
NEEDLES        CLEAR     78  43  28 S6        29.90R
$$

NVZ020-UTZ003-221200-
SOUTHERN NEVADA-UTAH

CITY           SKY/WX    TMP DP  RH WIND       PRES   REMARKS
LAS VEGAS      CLEAR     76  49  38 SW3       29.95R
SALT LAKE CITY CLOUDY    63  57  81 S3        30.14R
$$

NMZ009-TXZ055-221200-
NEW MEXICO-WEST TEXAS

CITY           SKY/WX    TMP DP  RH WIND       PRES   REMARKS
ALBUQUERQUE    MOCLDY    67  55  65 E10       30.29S
EL PASO        CLOUDY    70  65  84 N9        30.16S
$$


........................KEY........................
SKY/WX - SKY CONDITION/WEATHER
TMP    - TEMPERATURE IN FAHRENHEIT
DP     - DEW POINT IN FAHRENHEIT
RH     - RELATIVE HUMIDITY IN PERCENT
WIND   - DIRECTION AND SPEED IN MILES PER HOUR (MPH)
VRB    - VARIABLE WIND DIRECTION
PRES   - MEAN SEA LEVEL PRESSURE IN INCHES OF MERCURY
         F - FALLING PRESSURE   R - RISING PRESSURE
         S - STEADY PRESSURE
VSB    - VISIBILITY IN MILES
HX     - HEAT INDEX IN FAHRENHEIT
WCI    - WIND CHILL INDEX IN FAHRENHEIT
TC     - TEMPERATURE IN CELSIUS WHICH IS ALSO KNOWN AS
         TEMPERATURE IN CENTIGRADE
AFB    - AIR FORCE BASE
         LUKE AFB IS LUKE AIR FORCE BASE
         DAVIS-MONTHAN IS DAVIS-MONTHAN AIR FORCE BASE
NAS    - NAVAL AIR STATION
         EL CENTRO NAS IS EL CENTRO NAVAL AIR STATION
N/A    - NOT AVAILABLE



USA.gov is the U.S. government's official web portal to all federal, state and local government web resources and services.